Clayton Lake, ME

10:00 PM EST on December 04, 2016 (GMT -0500)
Clayton Lake

Weather History for K40B - March, 2013

Change the Weather History Date:

Thursday, March 14, 2013

  Actual Average Record
Temperature  
Mean Temperature 26 °F -  
Max Temperature 35 °F 30 °F 39 °F (2002)
Min Temperature 17 °F 4 °F -29 °F (2003)
Degree Days  
Heating Degree Days 39    
Moisture  
Dew Point 20 °F    
Average Humidity 76    
Maximum Humidity 89    
Minimum Humidity 60    
Precipitation  
Precipitation 0.05 in - - ()
Sea Level Pressure  
Sea Level Pressure 29.63 in    
Wind  
Wind Speed 5 mph (SW)    
Max Wind Speed 10 mph    
Max Gust Speed 24 mph    
Averages and records for this station are not official NWS values.
T = Trace of Precipitation, MM = Missing Value Source: NWS Daily Summary

Daily Weather History Graph

Daily Weather History Graph

Search for Another Location

Airport or City:

Trip Planner

Search our weather history database for the weather conditions in past years. The results will help you decide how hot, cold, wet, or windy it might be!

Date:

Astronomy

Mar. 14, 2013 Rise Set
Actual Time 6:52 AM EDT 6:42 PM EDT
Civil Twilight 6:22 AM EDT 7:12 PM EDT
Nautical Twilight 5:47 AM EDT 7:48 PM EDT
Astronomical Twilight 5:11 AM EDT 8:24 PM EDT
Moon 7:51 AM EDT (3/14) 10:10 PM EDT (3/14)
Length of Visible Light 12h 50m
Length of Day
11h 50m
Waxing Crescent, 9% of the Moon is Illuminated
Mar 14
Waxing Crescent
Mar 19
First Quarter
Mar 27
Full
Apr 3
Last Quarter
Apr 10
New

Hourly Weather History & Observations

Time (EDT) Temp. Windchill Dew Point Humidity Pressure Visibility Wind Dir Wind Speed Gust Speed Precip Events Conditions
12:25 AM 29.1 °F - 22.8 °F 77% 29.62 in - Variable 2.3 mph 12.7 mph N/A   Unknown
1:25 AM 27.9 °F - 22.3 °F 80% 29.61 in - Variable 2.3 mph - 0.00 in   Unknown
2:25 AM 27.1 °F 23.2 °F 21.7 °F 80% 29.60 in - Variable 3.5 mph - N/A   Unknown
3:25 AM 25.7 °F 21.5 °F 21.0 °F 82% 29.59 in - Variable 3.5 mph - N/A   Unknown
4:25 AM 25.3 °F 19.7 °F 20.5 °F 82% 29.59 in - Variable 4.6 mph - N/A   Unknown
5:25 AM 23.2 °F - 19.9 °F 87% 29.60 in - Calm Calm - N/A   Unknown
6:26 AM 23.5 °F 19.1 °F 20.8 °F 89% 29.60 in - Variable 3.5 mph - N/A   Unknown
7:25 AM 25.2 °F 19.5 °F 21.7 °F 87% 29.62 in - Variable 4.6 mph - N/A   Unknown
8:25 AM 28.9 °F 22.8 °F 22.3 °F 76% 29.62 in - Variable 5.8 mph 12.7 mph 0.00 in   Unknown
9:35 AM 30.6 °F 23.1 °F 21.9 °F 70% 29.63 in - SW 8.1 mph 17.3 mph N/A   Unknown
10:25 AM 32.0 °F 27.5 °F 23.4 °F 70% 29.62 in - Variable 4.6 mph 15.0 mph N/A   Unknown
11:28 AM 32.9 °F 26.7 °F 21.6 °F 63% 29.61 in - Variable 6.9 mph 18.4 mph N/A   Unknown
12:25 PM 34.5 °F 28.6 °F 23.9 °F 65% 29.60 in - SW 6.9 mph 15.0 mph N/A   Unknown
1:28 PM 31.5 °F 24.9 °F 24.1 °F 74% 29.60 in - Variable 6.9 mph 20.7 mph N/A   Unknown
2:25 PM 33.3 °F 28.9 °F 20.8 °F 60% 29.58 in - Variable 4.6 mph 13.8 mph N/A   Unknown
3:26 PM 28.9 °F 21.9 °F 24.8 °F 84% 29.59 in - West 6.9 mph 19.6 mph N/A   Unknown
4:25 PM 29.5 °F 23.4 °F 25.5 °F 85% 29.60 in - Variable 5.8 mph 17.3 mph 0.05 in   Unknown
5:25 PM 26.4 °F 17.3 °F 18.9 °F 73% 29.63 in - SSW 9.2 mph 23.0 mph N/A   Unknown
6:25 PM 24.4 °F 15.6 °F 16.0 °F 70% 29.66 in - WSW 8.1 mph 15.0 mph N/A   Unknown
7:25 PM 22.3 °F 11.5 °F 13.8 °F 70% 29.68 in - WSW 10.4 mph 24.2 mph N/A   Unknown
8:27 PM 20.5 °F 11.7 °F 12.6 °F 71% 29.69 in - Variable 6.9 mph 18.4 mph 0.00 in   Unknown
9:25 PM 19.0 °F 9.0 °F 12.4 °F 75% 29.70 in - WSW 8.1 mph 19.6 mph N/A   Unknown
10:27 PM 18.3 °F 11.5 °F 12.6 °F 78% 29.71 in - Variable 4.6 mph 15.0 mph N/A   Unknown
11:25 PM 17.2 °F 10.2 °F 12.0 °F 80% 29.72 in - Variable 4.6 mph 12.7 mph N/A   Unknown